[[{"header":{"parameterUnit":"m.s-1","parameterCategory":1,"la1":30.2991,"la2":30.254,"lo1":-89.0895,"lo2":-89.0444,"dy":0.0017,"dx":0.0017,"nx":28,"ny":28,"refTime":"2023-10-15T03:00:00:Z","depth":0,"parameterNumber":2,"parameterNumberName":"U-component_of_WINDS"},"data":[0,0,0,0,0,0,0,0,0,0,0,0,0,0,0,0,0,0,0,0,0,0,0,0,0,0,0,0,0,0,0,0,0,0,0,0,0,0,0,0,0,0,0,0,0,0,0,0,0,0,0,0,0,0,0,0,0,0,2.9062,2.9062,0,2.9053,2.9053,2.9053,2.9017,2.9016,2.9015,2.9015,2.9004,2.9004,2.9005,0,0,0,0,0,0,0,0,0,0,0,0,0,2.9048,2.9049,2.9062,2.9062,2.9062,2.9053,2.9053,2.9052,2.9017,2.9016,2.9015,2.9014,2.9004,2.9004,2.9005,0,0,0,0,0,0,0,0,0,0,0,0,0,2.9048,2.9049,2.9062,2.9043,2.9041,2.9053,2.9053,2.9052,2.9017,2.9016,2.9015,2.9014,2.9004,2.9004,2.9005,2.9034,0,0,2.9007,2.9007,0,0,0,0,0,0,0,0,2.9048,2.9049,2.9046,2.9044,2.9042,2.9035,2.9044,2.9046,2.9018,2.9026,2.9015,2.9013,2.9015,2.9015,2.9016,2.9033,2.9033,2.9007,2.9008,2.9008,2.9008,0,0,0,0,0,0,0,2.9048,2.9049,2.9058,2.9046,2.9044,2.9035,2.9034,2.9044,2.9028,2.9026,2.9023,2.9022,2.9014,2.9015,2.9015,2.9032,2.9007,2.9008,2.9008,2.9009,2.9074,2.9076,0,0,0,0,0,0,2.9051,2.9049,2.9058,2.9058,2.9042,2.9036,2.9035,2.9038,2.9027,2.9025,2.9024,2.9021,2.9015,2.9014,2.9015,2.9048,2.9008,2.9009,2.9009,2.9073,2.9075,2.9076,0,0,0,0,0,0,2.9051,2.9052,2.9059,2.9053,2.9053,2.9038,2.9042,2.9039,2.904,2.9026,2.9023,2.9028,2.9014,2.9014,2.903,2.9047,2.9009,2.901,2.9072,2.9074,2.9075,2.9115,0,0,0,0,0,0,2.9051,2.9052,2.9063,2.9053,2.9054,2.9074,2.9043,2.904,2.9042,2.9038,2.9029,2.9026,2.9013,2.9029,2.903,2.9048,2.901,2.907,2.9072,2.9075,2.9112,2.9118,2.9123,0,0,0,0,0,2.905,2.9074,2.9064,2.9065,2.9066,2.9075,2.9075,2.9059,2.9043,2.9054,2.9045,2.9027,2.9045,2.9031,2.9032,2.905,2.9069,2.9072,2.9075,2.9109,2.9117,2.9123,0,0,0,0,0,0,2.9085,2.9072,2.9061,2.9082,2.908,2.9069,2.9082,2.9067,2.9069,2.9066,2.9046,2.9044,2.9063,2.9058,2.9042,2.9078,2.9054,2.9057,2.908,2.9087,2.9093,2.9093,2.9011,0,0,0,0,0,2.9095,2.9103,2.9092,2.9111,2.9111,2.9097,2.91,2.9088,2.9085,2.9084,2.9076,2.9074,2.9079,2.9083,2.9087,2.9112,2.9109,2.9125,2.913,2.9135,2.9138,2.9152,2.9158,2.9086,2.9086,2.9086,0,0,2.9116,2.911,2.9116,2.9118,2.9115,2.9125,2.9096,2.9107,2.9113,2.9085,2.91,2.9095,2.909,2.9111,2.912,2.9108,2.9158,2.9139,2.9143,2.9143,2.9155,2.9162,2.9168,2.9088,2.9088,2.9087,0,0,2.9158,2.9155,2.9171,2.917,2.9166,2.9157,2.9161,2.9153,2.9148,2.9163,2.9143,2.915,2.916,2.9158,2.9158,2.9203,2.9187,2.9205,2.9234,2.9248,2.9253,2.9258,2.9275,2.9281,2.9208,2.9208,2.9208,0,2.9184,2.9198,2.9182,2.9194,2.9196,2.9172,2.9189,2.9188,2.9186,2.9188,2.9174,2.9187,2.9182,2.9203,2.9214,2.9215,2.9219,2.9205,2.9254,2.9259,2.9263,2.9278,2.9285,2.921,2.921,2.921,2.921,0,2.923,2.924,2.9254,2.9253,2.9257,2.9271,2.9258,2.9263,2.9252,2.9244,2.926,2.9254,2.9257,2.9262,2.925,2.9281,2.9274,2.9258,2.9233,2.9273,2.9287,2.9292,2.9214,2.9213,2.9212,2.9212,0,0,2.9292,2.9285,2.929,2.929,2.9286,2.9293,2.9307,2.9311,2.9316,2.9316,2.9327,2.9337,2.9323,2.9323,2.9311,2.9323,2.936,2.9306,2.9305,2.9316,2.9395,2.9407,2.9414,2.935,2.9351,2.9351,2.9395,0,2.9333,2.9357,2.9344,2.9369,2.9378,2.9357,2.937,2.9368,2.9362,2.9369,2.9362,2.9369,2.9349,2.935,2.9361,2.9353,2.9375,2.935,2.936,2.936,2.9361,2.9421,2.9433,2.9474,2.94,2.9401,2.9402,0,2.9383,2.9387,2.9414,2.9409,2.9412,2.9423,2.9427,2.9434,2.9432,2.9427,2.9429,2.9415,2.9428,2.9405,2.9424,2.9407,2.9411,2.9408,2.9409,2.9409,2.9383,2.9422,2.9487,2.9493,2.941,2.941,2.9409,0,2.9426,2.9438,2.9455,2.9456,2.9451,2.946,2.9458,2.9455,2.9459,2.9462,2.9464,2.9469,2.9471,2.9475,2.9463,2.9447,2.9483,2.9459,2.9479,2.948,2.9487,2.9487,2.9554,2.949,2.949,2.949,2.949,0,2.9473,2.949,2.9475,2.9486,2.9505,2.949,2.951,2.9505,2.9504,2.9514,2.9496,2.9505,2.9488,2.9497,2.9487,2.9505,2.9506,2.9502,2.9499,2.9503,2.9504,2.9505,2.9501,2.9492,2.9491,2.9491,2.9491,0,2.9524,2.9514,2.9532,2.9527,2.9526,2.954,2.9535,2.9545,2.9539,2.9551,2.9554,2.9543,2.9552,2.954,2.9547,2.9541,2.9565,2.9558,2.9566,2.9564,2.9585,2.9583,2.9654,2.9663,2.9594,2.9595,2.9595,0,2.9554,2.9567,2.9563,2.9569,2.9569,2.9578,2.9582,2.9569,2.9574,2.9575,2.9585,2.9592,2.9597,2.9612,2.9605,2.9611,2.9604,2.9629,2.9604,2.9609,2.9604,2.9604,2.9605,2.9633,2.9634,2.9635,2.9635,0,2.9609,2.9604,2.9611,2.9617,2.9623,2.9627,2.9629,2.9635,2.9621,2.9628,2.9637,2.9641,2.965,2.9657,2.9662,2.966,2.9645,2.9643,2.9648,2.9652,2.9656,2.9655,2.9579,2.9641,2.9641,2.964,2.964,2.964,2.965,2.9661,2.9661,2.967,2.9671,2.9674,2.9683,2.9679,2.9686,2.9692,2.9684,2.9696,2.9696,2.97,2.97,2.9709,2.9698,2.9706,2.9707,2.9709,2.9713,2.9656,2.971,2.971,2.9709,2.9709,2.9709,0,2.9704,2.9703,2.9712,2.9717,2.9724,2.9711,2.9713,2.972,2.9731,2.9732,2.9738,2.975,2.9758,2.9752,2.9759,2.9767,2.9761,2.9769,2.9768,2.9768,2.9722,2.9717,2.9774,2.9774,2.9774,2.9774,2.9774,2.9774,2.9733,2.9751,2.9747,2.9766,2.9765,2.9777,2.978,2.9783,2.9784,2.9797,2.9804,2.9801,2.98,2.9806,2.9813,2.9811,2.9815,2.9826,2.9822,2.9778,2.9771,2.9765,2.976,2.9827,2.9827,2.9867,2.9868,2.9868]},{"header":{"parameterUnit":"m.s-1","parameterCategory":1,"la1":30.2991,"la2":30.254,"lo1":-89.0895,"lo2":-89.0444,"dy":0.0017,"dx":0.0017,"nx":28,"ny":28,"refTime":"2023-10-15T03:00:00:Z","depth":0,"parameterNumber":3,"parameterNumberName":"V-component_of_WINDS"},"data":[0,0,0,0,0,0,0,0,0,0,0,0,0,0,0,0,0,0,0,0,0,0,0,0,0,0,0,0,0,0,0,0,0,0,0,0,0,0,0,0,0,0,0,0,0,0,0,0,0,0,0,0,0,0,0,0,0,0,-6.2301,-6.2302,0,-6.2399,-6.24,-6.2401,-6.2386,-6.2385,-6.2383,-6.2381,-6.2477,-6.2481,-6.2485,0,0,0,0,0,0,0,0,0,0,0,0,0,-6.2096,-6.21,-6.2301,-6.2302,-6.2303,-6.2399,-6.24,-6.2402,-6.2387,-6.2385,-6.2383,-6.2381,-6.2476,-6.2481,-6.2486,0,0,0,0,0,0,0,0,0,0,0,0,0,-6.2189,-6.2102,-6.23,-6.2307,-6.2309,-6.2399,-6.24,-6.2402,-6.2387,-6.2385,-6.2382,-6.238,-6.2474,-6.248,-6.2486,-6.2574,0,0,-6.2505,-6.2508,0,0,0,0,0,0,0,0,-6.2184,-6.2196,-6.2305,-6.2307,-6.2309,-6.2378,-6.2363,-6.2459,-6.2388,-6.2357,-6.2381,-6.2379,-6.2446,-6.2454,-6.2478,-6.2578,-6.2582,-6.2506,-6.2509,-6.2512,-6.2514,0,0,0,0,0,0,0,-6.2177,-6.2192,-6.2339,-6.2307,-6.2309,-6.2304,-6.2315,-6.2382,-6.2414,-6.236,-6.2359,-6.2371,-6.2446,-6.2472,-6.248,-6.2584,-6.2505,-6.2511,-6.2515,-6.2517,-6.2763,-6.2765,0,0,0,0,0,0,-6.217,-6.2187,-6.2336,-6.2342,-6.2239,-6.231,-6.2322,-6.2358,-6.2413,-6.2419,-6.2373,-6.237,-6.2463,-6.2473,-6.2483,-6.2591,-6.2512,-6.2518,-6.2521,-6.276,-6.2763,-6.2766,0,0,0,0,0,0,-6.2165,-6.2183,-6.2332,-6.2265,-6.2283,-6.2316,-6.2357,-6.2362,-6.2387,-6.2424,-6.2429,-6.2394,-6.2461,-6.2475,-6.2552,-6.2594,-6.252,-6.2526,-6.2757,-6.2761,-6.2765,-6.2805,0,0,0,0,0,0,-6.2159,-6.2182,-6.2216,-6.2265,-6.2287,-6.2401,-6.236,-6.2365,-6.2398,-6.2395,-6.2444,-6.245,-6.246,-6.2543,-6.2558,-6.2601,-6.2531,-6.2753,-6.2759,-6.2764,-6.28,-6.281,-6.2819,0,0,0,0,0,-6.2152,-6.2222,-6.2218,-6.2236,-6.2331,-6.2403,-6.2415,-6.2427,-6.2402,-6.2436,-6.246,-6.2448,-6.2587,-6.2551,-6.2568,-6.2613,-6.275,-6.2757,-6.2763,-6.2796,-6.2809,-6.2819,0,0,0,0,0,0,-6.2174,-6.2228,-6.2224,-6.2312,-6.2354,-6.24,-6.2444,-6.244,-6.2487,-6.2482,-6.2494,-6.2505,-6.2584,-6.2606,-6.2565,-6.2702,-6.2665,-6.2675,-6.2684,-6.2696,-6.2705,-6.2698,-6.2536,0,0,0,0,0,-6.2189,-6.2245,-6.2289,-6.2362,-6.2383,-6.241,-6.2442,-6.2449,-6.2491,-6.2508,-6.2537,-6.2577,-6.263,-6.2664,-6.2715,-6.2804,-6.2814,-6.2843,-6.2853,-6.286,-6.2868,-6.2919,-6.2932,-6.2787,-6.2787,-6.2787,0,0,-6.222,-6.2257,-6.2291,-6.2367,-6.24,-6.2457,-6.2425,-6.2485,-6.2527,-6.2516,-6.2592,-6.2615,-6.2661,-6.2745,-6.2783,-6.2766,-6.2911,-6.2868,-6.2874,-6.2878,-6.2926,-6.294,-6.2952,-6.2792,-6.2791,-6.279,0,0,-6.2307,-6.234,-6.2406,-6.244,-6.2491,-6.2509,-6.2525,-6.2573,-6.2589,-6.2666,-6.2659,-6.2708,-6.2799,-6.2832,-6.2861,-6.2963,-6.2955,-6.2979,-6.3028,-6.3076,-6.3088,-6.3098,-6.3135,-6.3148,-6.2988,-6.2988,-6.2988,0,-6.2339,-6.2426,-6.244,-6.2502,-6.2536,-6.2531,-6.2598,-6.2629,-6.2693,-6.2716,-6.2696,-6.2812,-6.2842,-6.2935,-6.296,-6.2983,-6.3002,-6.2973,-6.3085,-6.3096,-6.3105,-6.3141,-6.3155,-6.2991,-6.299,-6.299,-6.299,0,-6.2463,-6.2523,-6.257,-6.2635,-6.2674,-6.2738,-6.2761,-6.2799,-6.2802,-6.2822,-6.2901,-6.2938,-6.2996,-6.3019,-6.3021,-6.3112,-6.31,-6.3083,-6.3046,-6.3122,-6.3155,-6.3169,-6.2994,-6.2993,-6.2993,-6.2992,0,0,-6.2564,-6.2638,-6.2655,-6.2685,-6.2742,-6.2788,-6.2852,-6.2912,-6.2944,-6.2989,-6.3043,-6.3121,-6.3106,-6.3139,-6.3145,-6.3188,-6.3268,-6.3166,-6.3167,-6.3184,-6.3372,-6.3384,-6.34,-6.3263,-6.3266,-6.3268,-6.3368,0,-6.2656,-6.2772,-6.2787,-6.2889,-6.2945,-6.2942,-6.2998,-6.3038,-6.3059,-6.3109,-6.3131,-6.3187,-6.3163,-6.3183,-6.3225,-6.3249,-6.3306,-6.3242,-6.3313,-6.3315,-6.3301,-6.3417,-6.3431,-6.3523,-6.3381,-6.3383,-6.3385,0,-6.2779,-6.283,-6.2938,-6.2989,-6.3013,-6.3064,-6.312,-6.3168,-6.3214,-6.3227,-6.3265,-6.3267,-6.3333,-6.3294,-6.3385,-6.3341,-6.3371,-6.3388,-6.3392,-6.3398,-6.3354,-6.3428,-6.3553,-6.3567,-6.3406,-6.3404,-6.3402,0,-6.2843,-6.2938,-6.3016,-6.3042,-6.3103,-6.3139,-6.3165,-6.3209,-6.3245,-6.3294,-6.3317,-6.3373,-6.3403,-6.3446,-6.3463,-6.3433,-6.3553,-6.3515,-6.3565,-6.3564,-6.3589,-6.3588,-6.3722,-6.3609,-6.3608,-6.3608,-6.3608,0,-6.2945,-6.3011,-6.3046,-6.3093,-6.3168,-6.3185,-6.3257,-6.3283,-6.3322,-6.3374,-6.3375,-6.3423,-6.3442,-6.3494,-6.3507,-6.3581,-6.3594,-6.3606,-6.3608,-6.3606,-6.3605,-6.3625,-6.3619,-6.3612,-6.3611,-6.361,-6.361,0,-6.3028,-6.3054,-6.3139,-6.3191,-6.3206,-6.3258,-6.3303,-6.3348,-6.337,-6.3435,-6.3452,-6.3485,-6.3545,-6.3567,-6.364,-6.3649,-6.3735,-6.3732,-6.372,-6.3721,-6.3769,-6.3764,-6.3921,-6.3943,-6.3815,-6.3816,-6.3817,0,-6.3091,-6.3143,-6.3202,-6.3238,-6.3267,-6.3324,-6.3361,-6.338,-6.3419,-6.3477,-6.3515,-6.3577,-6.3626,-6.3724,-6.3753,-6.3809,-6.3808,-6.3859,-6.3816,-6.3813,-6.3809,-6.3806,-6.3812,-6.3867,-6.3868,-6.3869,-6.387,0,-6.3201,-6.3212,-6.3266,-6.3326,-6.3371,-6.3418,-6.3464,-6.3493,-6.3519,-6.3562,-6.3626,-6.3665,-6.3741,-6.3802,-6.386,-6.3886,-6.3883,-6.3884,-6.3898,-6.3896,-6.3887,-6.3893,-6.3742,-6.388,-6.3879,-6.3878,-6.3878,-6.3877,-6.3276,-6.3323,-6.3372,-6.3433,-6.347,-6.3514,-6.356,-6.3589,-6.3642,-6.3707,-6.3715,-6.3784,-6.383,-6.3908,-6.3937,-6.3991,-6.3976,-6.3997,-6.4002,-6.4007,-6.4011,-6.3879,-6.4001,-6.4001,-6.4001,-6.4,-6.4,0,-6.3386,-6.3419,-6.3475,-6.3541,-6.3589,-6.3584,-6.3635,-6.3675,-6.3736,-6.378,-6.383,-6.3904,-6.3963,-6.3999,-6.4058,-6.4094,-6.4094,-6.4109,-6.4106,-6.4113,-6.402,-6.4002,-6.4108,-6.4108,-6.4108,-6.4108,-6.4108,-6.4108,-6.3449,-6.3528,-6.3545,-6.3642,-6.3674,-6.3743,-6.3772,-6.3812,-6.3848,-6.3931,-6.3982,-6.4005,-6.4046,-6.4109,-6.4163,-6.4172,-6.4194,-6.421,-6.4218,-6.413,-6.4119,-6.4108,-6.4092,-6.4215,-6.4215,-6.4306,-6.4307,-6.4307]}]]